Year,Month,Day,Hour,Minute,Value (Times are PST for temperature in C)
2015,07,14,00,00,17.60
2015,07,14,00,01,17.60
2015,07,14,00,02,17.60
2015,07,14,00,03,17.70
2015,07,14,00,04,17.70
2015,07,14,00,05,17.80
2015,07,14,00,06,17.80
2015,07,14,00,07,17.80
2015,07,14,00,08,17.80
2015,07,14,00,09,17.80
2015,07,14,00,10,17.80
2015,07,14,00,11,17.80
2015,07,14,00,12,17.80
2015,07,14,00,13,17.80
2015,07,14,00,14,17.80
2015,07,14,00,15,17.80
2015,07,14,00,16,17.80
2015,07,14,00,17,17.70
2015,07,14,00,18,17.70
2015,07,14,00,19,17.70
2015,07,14,00,20,17.80
2015,07,14,00,21,17.80
2015,07,14,00,22,17.80
2015,07,14,00,23,17.80
2015,07,14,00,24,17.80
2015,07,14,00,25,17.80
2015,07,14,00,26,17.80
2015,07,14,00,27,17.80
2015,07,14,00,28,17.80
2015,07,14,00,29,17.90
2015,07,14,00,30,17.90
2015,07,14,00,31,17.90
2015,07,14,00,32,17.90
2015,07,14,00,33,17.90
2015,07,14,00,34,17.90
2015,07,14,00,35,17.90
2015,07,14,00,36,17.90
2015,07,14,00,37,17.90
2015,07,14,00,38,17.90
2015,07,14,00,39,18.00
2015,07,14,00,40,18.00
2015,07,14,00,41,18.00
2015,07,14,00,42,18.00
2015,07,14,00,43,18.00
2015,07,14,00,44,18.00
2015,07,14,00,45,18.00
2015,07,14,00,46,18.00
2015,07,14,00,47,18.00
2015,07,14,00,48,17.90
2015,07,14,00,49,17.90
2015,07,14,00,50,17.90
2015,07,14,00,51,17.90
2015,07,14,00,52,17.90
2015,07,14,00,53,17.80
2015,07,14,00,54,17.80
2015,07,14,00,55,17.80
2015,07,14,00,56,17.70
2015,07,14,00,57,17.70
2015,07,14,00,58,17.70
2015,07,14,00,59,17.80
2015,07,14,01,00,17.80
2015,07,14,01,01,17.80
2015,07,14,01,02,17.80
2015,07,14,01,03,17.80
2015,07,14,01,04,17.80
2015,07,14,01,05,17.80
2015,07,14,01,06,17.70
2015,07,14,01,07,17.70
2015,07,14,01,08,17.70
2015,07,14,01,09,17.70
2015,07,14,01,10,17.60
2015,07,14,01,11,17.60
2015,07,14,01,12,17.60
2015,07,14,01,13,17.50
2015,07,14,01,14,17.50
2015,07,14,01,15,17.40
2015,07,14,01,16,17.40
2015,07,14,01,17,17.40
2015,07,14,01,18,17.40
2015,07,14,01,19,17.40
2015,07,14,01,20,17.40
2015,07,14,01,21,17.30
2015,07,14,01,22,17.30
2015,07,14,01,23,17.30
2015,07,14,01,24,17.30
2015,07,14,01,25,17.30
2015,07,14,01,26,17.30
2015,07,14,01,27,17.30
2015,07,14,01,28,17.30
2015,07,14,01,29,17.30
2015,07,14,01,30,17.30
2015,07,14,01,31,17.30
2015,07,14,01,32,17.20
2015,07,14,01,33,17.20
2015,07,14,01,34,17.20
2015,07,14,01,35,17.20
2015,07,14,01,36,17.20
2015,07,14,01,37,17.20
2015,07,14,01,38,17.10
2015,07,14,01,39,17.20
2015,07,14,01,40,17.20
2015,07,14,01,41,17.20
2015,07,14,01,42,17.20
2015,07,14,01,43,17.20
2015,07,14,01,44,17.20
2015,07,14,01,45,17.20
2015,07,14,01,46,17.30
2015,07,14,01,47,17.30
2015,07,14,01,48,17.30
2015,07,14,01,49,17.30
2015,07,14,01,50,17.40
2015,07,14,01,51,17.40
2015,07,14,01,52,17.40
2015,07,14,01,53,17.40
2015,07,14,01,54,17.40
2015,07,14,01,55,17.40
2015,07,14,01,56,17.40
2015,07,14,01,57,17.40
2015,07,14,01,58,17.40
2015,07,14,01,59,17.40
2015,07,14,02,00,17.40
2015,07,14,02,01,17.40
2015,07,14,02,02,17.40
2015,07,14,02,03,17.40
2015,07,14,02,04,17.50
2015,07,14,02,05,17.50
2015,07,14,02,06,17.50
2015,07,14,02,07,17.40
2015,07,14,02,08,17.40
2015,07,14,02,09,17.40
2015,07,14,02,10,17.40
2015,07,14,02,11,17.40
2015,07,14,02,12,17.40
2015,07,14,02,13,17.50
2015,07,14,02,14,17.50
2015,07,14,02,15,17.50
2015,07,14,02,16,17.50
2015,07,14,02,17,17.50
2015,07,14,02,18,17.40
2015,07,14,02,19,17.40
2015,07,14,02,20,17.40
2015,07,14,02,21,17.40
2015,07,14,02,22,17.40
2015,07,14,02,23,17.40
2015,07,14,02,24,17.40
2015,07,14,02,25,17.40
2015,07,14,02,26,17.30
2015,07,14,02,27,17.30
2015,07,14,02,28,17.30
2015,07,14,02,29,17.30
2015,07,14,02,30,17.30
2015,07,14,02,31,17.30
2015,07,14,02,32,17.30
2015,07,14,02,33,17.30
2015,07,14,02,34,17.30
2015,07,14,02,35,17.30
2015,07,14,02,36,17.30
2015,07,14,02,37,17.30
2015,07,14,02,38,17.30
2015,07,14,02,39,17.20
2015,07,14,02,40,17.20
2015,07,14,02,41,17.20
2015,07,14,02,42,17.20
2015,07,14,02,43,17.20
2015,07,14,02,44,17.20
2015,07,14,02,45,17.20
2015,07,14,02,46,17.20
2015,07,14,02,47,17.20
2015,07,14,02,48,17.20
2015,07,14,02,49,17.20
2015,07,14,02,50,17.20
2015,07,14,02,51,17.20
2015,07,14,02,52,17.20
2015,07,14,02,53,17.20
2015,07,14,02,54,17.10
2015,07,14,02,55,17.10
2015,07,14,02,56,17.10
2015,07,14,02,57,17.10
2015,07,14,02,58,17.00
2015,07,14,02,59,17.00
2015,07,14,03,00,17.00
2015,07,14,03,01,16.90
2015,07,14,03,02,16.90
2015,07,14,03,03,16.90
2015,07,14,03,04,16.90
2015,07,14,03,05,16.80
2015,07,14,03,06,16.80
2015,07,14,03,07,16.80
2015,07,14,03,08,16.80
2015,07,14,03,09,16.80
2015,07,14,03,10,16.70
2015,07,14,03,11,16.70
2015,07,14,03,12,16.70
2015,07,14,03,13,16.70
2015,07,14,03,14,16.70
2015,07,14,03,15,16.70
2015,07,14,03,16,16.70
2015,07,14,03,17,16.70
2015,07,14,03,18,16.60
2015,07,14,03,19,16.60
2015,07,14,03,20,16.60
2015,07,14,03,21,16.70
2015,07,14,03,22,16.70
2015,07,14,03,23,16.70
2015,07,14,03,24,16.70
2015,07,14,03,25,16.70
2015,07,14,03,26,16.70
2015,07,14,03,27,16.70
2015,07,14,03,28,16.70
2015,07,14,03,29,16.80
2015,07,14,03,30,16.80
2015,07,14,03,31,16.80
2015,07,14,03,32,16.80
2015,07,14,03,33,16.80
2015,07,14,03,34,16.80
2015,07,14,03,35,16.80
2015,07,14,03,36,16.80
2015,07,14,03,37,16.80
2015,07,14,03,38,16.80
2015,07,14,03,39,16.80
2015,07,14,03,40,16.80
2015,07,14,03,41,16.80
2015,07,14,03,42,16.80
2015,07,14,03,43,16.80
2015,07,14,03,44,16.80
2015,07,14,03,45,16.80
2015,07,14,03,46,16.80
2015,07,14,03,47,16.80
2015,07,14,03,48,16.80
2015,07,14,03,49,16.80
2015,07,14,03,50,16.80
2015,07,14,03,51,16.80
2015,07,14,03,52,16.80
2015,07,14,03,53,16.80
2015,07,14,03,54,16.80
2015,07,14,03,55,16.80
2015,07,14,03,56,16.80
2015,07,14,03,57,16.80
2015,07,14,03,58,16.80
2015,07,14,03,59,16.80
2015,07,14,04,00,16.80
2015,07,14,04,01,16.80
2015,07,14,04,02,16.80
2015,07,14,04,03,16.80
2015,07,14,04,04,16.80
2015,07,14,04,05,16.80
2015,07,14,04,06,16.80
2015,07,14,04,07,16.80
2015,07,14,04,08,16.80
2015,07,14,04,09,16.80
2015,07,14,04,10,16.80
2015,07,14,04,11,16.80
2015,07,14,04,12,16.80
2015,07,14,04,13,16.80
2015,07,14,04,14,16.80
2015,07,14,04,15,16.80
2015,07,14,04,16,16.80
2015,07,14,04,17,16.90
2015,07,14,04,18,16.90
2015,07,14,04,19,16.90
2015,07,14,04,20,16.90
2015,07,14,04,21,16.90
2015,07,14,04,22,16.90
2015,07,14,04,23,16.90
2015,07,14,04,24,16.90
2015,07,14,04,25,16.90
2015,07,14,04,26,16.90
2015,07,14,04,27,16.90
2015,07,14,04,28,16.90
2015,07,14,04,29,16.80
2015,07,14,04,30,16.80
2015,07,14,04,31,16.80
2015,07,14,04,32,16.80
2015,07,14,04,33,16.80
2015,07,14,04,34,16.70
2015,07,14,04,35,16.70
2015,07,14,04,36,16.70
2015,07,14,04,37,16.70
2015,07,14,04,38,16.70
2015,07,14,04,39,16.60
2015,07,14,04,40,16.60
2015,07,14,04,41,16.60
2015,07,14,04,42,16.60
2015,07,14,04,43,16.50
2015,07,14,04,44,16.50
2015,07,14,04,45,16.50
2015,07,14,04,46,16.40
2015,07,14,04,47,16.40
2015,07,14,04,48,16.40
2015,07,14,04,49,16.40
2015,07,14,04,50,16.30
2015,07,14,04,51,16.30
2015,07,14,04,52,16.30
2015,07,14,04,53,16.30
2015,07,14,04,54,16.30
2015,07,14,04,55,16.30
2015,07,14,04,56,16.30
2015,07,14,04,57,16.30
2015,07,14,04,58,16.30
2015,07,14,04,59,16.30
2015,07,14,05,00,16.30
2015,07,14,05,01,16.20
2015,07,14,05,02,16.20
2015,07,14,05,03,16.20
2015,07,14,05,04,16.20
2015,07,14,05,05,16.20
2015,07,14,05,06,16.20
2015,07,14,05,07,16.20
2015,07,14,05,08,16.20
2015,07,14,05,09,16.20
2015,07,14,05,10,16.30
2015,07,14,05,11,16.20
2015,07,14,05,12,16.20
2015,07,14,05,13,16.20
2015,07,14,05,14,16.20
2015,07,14,05,15,16.20
2015,07,14,05,16,16.20
2015,07,14,05,17,16.20
2015,07,14,05,18,16.20
2015,07,14,05,19,16.20
2015,07,14,05,20,16.20
2015,07,14,05,21,16.20
2015,07,14,05,22,16.20
2015,07,14,05,23,16.20
2015,07,14,05,24,16.20
2015,07,14,05,25,16.20
2015,07,14,05,26,16.20
2015,07,14,05,27,16.20
2015,07,14,05,28,16.20
2015,07,14,05,29,16.10
2015,07,14,05,30,16.10
2015,07,14,05,31,16.10
2015,07,14,05,32,16.10
2015,07,14,05,33,16.10
2015,07,14,05,34,16.10
2015,07,14,05,35,16.10
2015,07,14,05,36,16.10
2015,07,14,05,37,16.10
2015,07,14,05,38,16.10
2015,07,14,05,39,16.10
2015,07,14,05,40,16.10
2015,07,14,05,41,16.00
2015,07,14,05,42,16.00
2015,07,14,05,43,16.00
2015,07,14,05,44,16.00
2015,07,14,05,45,16.00
2015,07,14,05,46,15.90
2015,07,14,05,47,15.90
2015,07,14,05,48,15.90
2015,07,14,05,49,16.00
2015,07,14,05,50,16.00
2015,07,14,05,51,16.00
2015,07,14,05,52,16.00
2015,07,14,05,53,16.00
2015,07,14,05,54,16.00
2015,07,14,05,55,16.00
2015,07,14,05,56,16.00
2015,07,14,05,57,16.10
2015,07,14,05,58,16.10
2015,07,14,05,59,16.10
2015,07,14,06,00,16.10
2015,07,14,06,01,16.10
2015,07,14,06,02,16.10
2015,07,14,06,03,16.20
2015,07,14,06,04,16.20
2015,07,14,06,05,16.20
2015,07,14,06,06,16.20
2015,07,14,06,07,16.20
2015,07,14,06,08,16.20
2015,07,14,06,09,16.20
2015,07,14,06,10,16.20
2015,07,14,06,11,16.20
2015,07,14,06,12,16.20
2015,07,14,06,13,16.20
2015,07,14,06,14,16.20
2015,07,14,06,15,16.20
2015,07,14,06,16,16.30
2015,07,14,06,17,16.30
2015,07,14,06,18,16.30
2015,07,14,06,19,16.30
2015,07,14,06,20,16.30
2015,07,14,06,21,16.30
2015,07,14,06,22,16.30
2015,07,14,06,23,16.30
2015,07,14,06,24,16.30
2015,07,14,06,25,16.40
2015,07,14,06,26,16.40
2015,07,14,06,27,16.40
2015,07,14,06,28,16.40
2015,07,14,06,29,16.40
2015,07,14,06,30,16.40
2015,07,14,06,31,16.40
2015,07,14,06,32,16.40
2015,07,14,06,33,16.40
2015,07,14,06,34,16.40
2015,07,14,06,35,16.40
2015,07,14,06,36,16.50
2015,07,14,06,37,16.50
2015,07,14,06,38,16.60
2015,07,14,06,39,16.60
2015,07,14,06,40,16.60
2015,07,14,06,41,16.70
2015,07,14,06,42,16.70
2015,07,14,06,43,16.70
2015,07,14,06,44,16.70
2015,07,14,06,45,16.70
2015,07,14,06,46,16.70
2015,07,14,06,47,16.70
2015,07,14,06,48,16.70
2015,07,14,06,49,16.70
2015,07,14,06,50,16.70
2015,07,14,06,51,16.70
2015,07,14,06,52,16.70
2015,07,14,06,53,16.70
2015,07,14,06,54,16.70
2015,07,14,06,55,16.70
2015,07,14,06,56,16.70
2015,07,14,06,57,16.70
2015,07,14,06,58,16.70
2015,07,14,06,59,16.70
2015,07,14,07,00,16.80
2015,07,14,07,01,16.70
2015,07,14,07,02,16.80
2015,07,14,07,03,16.80
2015,07,14,07,04,16.80
2015,07,14,07,05,16.80
2015,07,14,07,06,16.80
2015,07,14,07,07,16.80
2015,07,14,07,08,16.80
2015,07,14,07,09,16.80
2015,07,14,07,10,16.90
2015,07,14,07,11,16.90
2015,07,14,07,12,16.90
2015,07,14,07,13,16.90
2015,07,14,07,14,16.90
2015,07,14,07,15,16.90
2015,07,14,07,16,16.90
2015,07,14,07,17,16.90
2015,07,14,07,18,17.00
2015,07,14,07,19,17.00
2015,07,14,07,20,17.00
2015,07,14,07,21,17.00
2015,07,14,07,22,17.00
2015,07,14,07,23,17.00
2015,07,14,07,24,17.00
2015,07,14,07,25,17.00
2015,07,14,07,26,17.00
2015,07,14,07,27,17.10
2015,07,14,07,28,17.10
2015,07,14,07,29,17.10
2015,07,14,07,30,17.10
2015,07,14,07,31,17.20
2015,07,14,07,32,17.20
2015,07,14,07,33,17.20
2015,07,14,07,34,17.30
2015,07,14,07,35,17.30
2015,07,14,07,36,17.30
2015,07,14,07,37,17.30
2015,07,14,07,38,17.40
2015,07,14,07,39,17.40
2015,07,14,07,40,17.40
2015,07,14,07,41,17.50
2015,07,14,07,42,17.50
2015,07,14,07,43,17.50
2015,07,14,07,44,17.50
2015,07,14,07,45,17.50
2015,07,14,07,46,17.50
2015,07,14,07,47,17.60
2015,07,14,07,48,17.60
2015,07,14,07,49,17.60
2015,07,14,07,50,17.60
2015,07,14,07,51,17.70
2015,07,14,07,52,17.70
2015,07,14,07,53,17.70
2015,07,14,07,54,17.80
2015,07,14,07,55,17.80
2015,07,14,07,56,17.80
2015,07,14,07,57,17.80
2015,07,14,07,58,17.80
2015,07,14,07,59,17.80
2015,07,14,08,00,17.80
2015,07,14,08,01,17.90
2015,07,14,08,02,17.90
2015,07,14,08,03,17.90
2015,07,14,08,04,18.00
2015,07,14,08,05,18.00
2015,07,14,08,06,18.10
2015,07,14,08,07,18.10
2015,07,14,08,08,18.10
2015,07,14,08,09,18.10
2015,07,14,08,10,18.20
2015,07,14,08,11,18.20
2015,07,14,08,12,18.20
2015,07,14,08,13,18.10
2015,07,14,08,14,18.10
2015,07,14,08,15,18.20
2015,07,14,08,16,18.20
2015,07,14,08,17,18.20
2015,07,14,08,18,18.20
2015,07,14,08,19,18.20
2015,07,14,08,20,18.20
2015,07,14,08,21,18.30
2015,07,14,08,22,18.30
2015,07,14,08,23,18.30
2015,07,14,08,24,18.40
2015,07,14,08,25,18.40
2015,07,14,08,26,18.40
2015,07,14,08,27,18.40
2015,07,14,08,28,18.40
2015,07,14,08,29,18.40
2015,07,14,08,30,18.40
2015,07,14,08,31,18.40
2015,07,14,08,32,18.50
2015,07,14,08,33,18.60
2015,07,14,08,34,18.60
2015,07,14,08,35,18.60
2015,07,14,08,36,18.60
2015,07,14,08,37,18.60
2015,07,14,08,38,18.50
2015,07,14,08,39,18.50
2015,07,14,08,40,18.50
2015,07,14,08,41,18.50
2015,07,14,08,42,18.50
2015,07,14,08,43,18.50
2015,07,14,08,44,18.50
2015,07,14,08,45,18.50
2015,07,14,08,46,18.50
2015,07,14,08,47,18.50
2015,07,14,08,48,18.50
2015,07,14,08,49,18.50
2015,07,14,08,50,18.60
2015,07,14,08,51,18.50
2015,07,14,08,52,18.50
2015,07,14,08,53,18.50
2015,07,14,08,54,18.60
2015,07,14,08,55,18.60
2015,07,14,08,56,18.60
2015,07,14,08,57,18.70
2015,07,14,08,58,18.70
2015,07,14,08,59,18.80
2015,07,14,09,00,18.80
2015,07,14,09,01,18.90
2015,07,14,09,02,18.90
2015,07,14,09,03,18.90
2015,07,14,09,04,18.90
2015,07,14,09,05,18.90
2015,07,14,09,06,18.90
2015,07,14,09,07,18.80
2015,07,14,09,08,18.70
2015,07,14,09,09,18.70
2015,07,14,09,10,18.60
2015,07,14,09,11,18.60
2015,07,14,09,12,18.60
2015,07,14,09,13,18.60
2015,07,14,09,14,18.60
2015,07,14,09,15,18.60
2015,07,14,09,16,18.50
2015,07,14,09,17,18.40
2015,07,14,09,18,18.40
2015,07,14,09,19,18.40
2015,07,14,09,20,18.40
2015,07,14,09,21,18.40
2015,07,14,09,22,18.40
2015,07,14,09,23,18.40
2015,07,14,09,24,18.40
2015,07,14,09,25,18.40
2015,07,14,09,26,18.40
2015,07,14,09,27,18.40
2015,07,14,09,28,18.50
2015,07,14,09,29,18.50
2015,07,14,09,30,18.60
2015,07,14,09,31,18.60
2015,07,14,09,32,18.60
2015,07,14,09,33,18.60
2015,07,14,09,34,18.60
2015,07,14,09,35,18.60
2015,07,14,09,36,18.70
2015,07,14,09,37,18.60
2015,07,14,09,38,18.60
2015,07,14,09,39,18.60
2015,07,14,09,40,18.60
2015,07,14,09,41,18.60
2015,07,14,09,42,18.60
2015,07,14,09,43,18.70
2015,07,14,09,44,18.70
2015,07,14,09,45,18.70
2015,07,14,09,46,18.60
2015,07,14,09,47,18.60
2015,07,14,09,48,18.60
2015,07,14,09,49,18.60
2015,07,14,09,50,18.60
2015,07,14,09,51,18.60
2015,07,14,09,52,18.60
2015,07,14,09,53,18.60
2015,07,14,09,54,18.60
2015,07,14,09,55,18.60
2015,07,14,09,56,18.60
2015,07,14,09,57,18.70
2015,07,14,09,58,18.70
2015,07,14,09,59,18.80
2015,07,14,10,00,18.80
2015,07,14,10,01,18.90
2015,07,14,10,02,18.90
2015,07,14,10,03,18.90
2015,07,14,10,04,18.90
2015,07,14,10,05,18.90
2015,07,14,10,06,19.00
2015,07,14,10,07,19.00
2015,07,14,10,08,18.90
2015,07,14,10,09,18.90
2015,07,14,10,10,18.90
2015,07,14,10,11,18.90
2015,07,14,10,12,18.90
2015,07,14,10,13,18.90
2015,07,14,10,14,19.00
2015,07,14,10,15,19.00
2015,07,14,10,16,19.00
2015,07,14,10,17,19.00
2015,07,14,10,18,19.00
2015,07,14,10,19,19.00
2015,07,14,10,20,19.00
2015,07,14,10,21,18.90
2015,07,14,10,22,18.90
2015,07,14,10,23,18.80
2015,07,14,10,24,18.80
2015,07,14,10,25,18.80
2015,07,14,10,26,18.70
2015,07,14,10,27,18.70
2015,07,14,10,28,18.70
2015,07,14,10,29,18.70
2015,07,14,10,30,18.70
2015,07,14,10,31,18.70
2015,07,14,10,32,18.70
2015,07,14,10,33,18.70
2015,07,14,10,34,18.70
2015,07,14,10,35,18.70
2015,07,14,10,36,18.70
2015,07,14,10,37,18.70
2015,07,14,10,38,18.70
2015,07,14,10,39,18.70
2015,07,14,10,40,18.70
2015,07,14,10,41,18.80
2015,07,14,10,42,18.80
2015,07,14,10,43,18.80
2015,07,14,10,44,18.90
2015,07,14,10,45,18.90
2015,07,14,10,46,19.00
2015,07,14,10,47,19.10
2015,07,14,10,48,19.10
2015,07,14,10,49,19.20
2015,07,14,10,50,19.20
2015,07,14,10,51,19.30
2015,07,14,10,52,19.30
2015,07,14,10,53,19.40
2015,07,14,10,54,19.50
2015,07,14,10,55,19.50
2015,07,14,10,56,19.50
2015,07,14,10,57,19.50
2015,07,14,10,58,19.60
2015,07,14,10,59,19.60
2015,07,14,11,00,19.60
2015,07,14,11,01,19.60
2015,07,14,11,02,19.70
2015,07,14,11,03,19.70
2015,07,14,11,04,19.70
2015,07,14,11,05,19.70
2015,07,14,11,06,19.60
2015,07,14,11,07,19.60
2015,07,14,11,08,19.60
2015,07,14,11,09,19.60
2015,07,14,11,10,19.60
2015,07,14,11,11,19.70
2015,07,14,11,12,19.70
2015,07,14,11,13,19.70
2015,07,14,11,14,19.70
2015,07,14,11,15,19.70
2015,07,14,11,16,19.80
2015,07,14,11,17,19.80
2015,07,14,11,18,19.80
2015,07,14,11,19,19.70
2015,07,14,11,20,19.70
2015,07,14,11,21,19.80
2015,07,14,11,22,19.80
2015,07,14,11,23,19.90
2015,07,14,11,24,20.00
2015,07,14,11,25,20.10
2015,07,14,11,26,20.10
2015,07,14,11,27,20.10
2015,07,14,11,28,20.00
2015,07,14,11,29,20.00
2015,07,14,11,30,20.00
2015,07,14,11,31,20.00
2015,07,14,11,32,20.00
2015,07,14,11,33,20.10
2015,07,14,11,34,20.10
2015,07,14,11,35,20.10
2015,07,14,11,36,20.10
2015,07,14,11,37,20.00
2015,07,14,11,38,20.00
2015,07,14,11,39,20.00
2015,07,14,11,40,20.00
2015,07,14,11,41,20.00
2015,07,14,11,42,20.00
2015,07,14,11,43,20.00
2015,07,14,11,44,19.90
2015,07,14,11,45,19.90
2015,07,14,11,46,19.90
2015,07,14,11,47,20.00
2015,07,14,11,48,20.10
2015,07,14,11,49,20.20
2015,07,14,11,50,20.20
2015,07,14,11,51,20.20
2015,07,14,11,52,20.20
2015,07,14,11,53,20.20
2015,07,14,11,54,20.30
2015,07,14,11,55,20.30
2015,07,14,11,56,20.30
2015,07,14,11,57,20.40
2015,07,14,11,58,20.50
2015,07,14,11,59,20.60
2015,07,14,12,00,20.70
2015,07,14,12,01,20.80
2015,07,14,12,02,20.80
2015,07,14,12,03,20.80
2015,07,14,12,04,20.80
2015,07,14,12,05,20.80
2015,07,14,12,06,20.80
2015,07,14,12,07,20.90
2015,07,14,12,08,20.90
2015,07,14,12,09,21.00
2015,07,14,12,10,21.00
2015,07,14,12,11,21.10
2015,07,14,12,12,21.10
2015,07,14,12,13,21.20
2015,07,14,12,14,21.20
2015,07,14,12,15,21.20
2015,07,14,12,16,21.20
2015,07,14,12,17,21.10
2015,07,14,12,18,21.10
2015,07,14,12,19,21.10
2015,07,14,12,20,21.10
2015,07,14,12,21,21.10
2015,07,14,12,22,21.10
2015,07,14,12,23,21.20
2015,07,14,12,24,21.20
2015,07,14,12,25,21.30
2015,07,14,12,26,21.20
2015,07,14,12,27,21.20
2015,07,14,12,28,21.20
2015,07,14,12,29,21.20
2015,07,14,12,30,21.30
2015,07,14,12,31,21.30
2015,07,14,12,32,21.30
2015,07,14,12,33,21.40
2015,07,14,12,34,21.40
2015,07,14,12,35,21.40
2015,07,14,12,36,21.40
2015,07,14,12,37,21.40
2015,07,14,12,38,21.40
2015,07,14,12,39,21.50
2015,07,14,12,40,21.60
2015,07,14,12,41,21.60
2015,07,14,12,42,21.70
2015,07,14,12,43,21.70
2015,07,14,12,44,21.80
2015,07,14,12,45,21.80
2015,07,14,12,46,21.90
2015,07,14,12,47,21.90
2015,07,14,12,48,21.90
2015,07,14,12,49,21.90
2015,07,14,12,50,21.90
2015,07,14,12,51,21.80
2015,07,14,12,52,21.80
2015,07,14,12,53,21.70
2015,07,14,12,54,21.70
2015,07,14,12,55,21.70
2015,07,14,12,56,21.70
2015,07,14,12,57,21.80
2015,07,14,12,58,21.80
2015,07,14,12,59,21.80
2015,07,14,13,00,21.90
2015,07,14,13,01,22.00
2015,07,14,13,02,22.10
2015,07,14,13,03,22.20
2015,07,14,13,04,22.30
2015,07,14,13,05,22.30
2015,07,14,13,06,22.30
2015,07,14,13,07,22.30
2015,07,14,13,08,22.40
2015,07,14,13,09,22.40
2015,07,14,13,10,22.40
2015,07,14,13,11,22.40
2015,07,14,13,12,22.40
2015,07,14,13,13,22.40
2015,07,14,13,14,22.30
2015,07,14,13,15,22.30
2015,07,14,13,16,22.20
2015,07,14,13,17,22.20
2015,07,14,13,18,22.30
2015,07,14,13,19,22.30
2015,07,14,13,20,22.30
2015,07,14,13,21,22.30
2015,07,14,13,22,22.30
2015,07,14,13,23,22.40
2015,07,14,13,24,22.50
2015,07,14,13,25,22.60
2015,07,14,13,26,22.60
2015,07,14,13,27,22.70
2015,07,14,13,28,22.70
2015,07,14,13,29,22.80
2015,07,14,13,30,22.80
2015,07,14,13,31,22.70
2015,07,14,13,32,22.60
2015,07,14,13,33,22.60
2015,07,14,13,34,22.60
2015,07,14,13,35,22.60
2015,07,14,13,36,22.70
2015,07,14,13,37,22.80
2015,07,14,13,38,22.90
2015,07,14,13,39,23.00
2015,07,14,13,40,23.10
2015,07,14,13,41,23.10
2015,07,14,13,42,23.00
2015,07,14,13,43,22.90
2015,07,14,13,44,22.80
2015,07,14,13,45,22.80
2015,07,14,13,46,22.80
2015,07,14,13,47,22.70
2015,07,14,13,48,22.70
2015,07,14,13,49,22.70
2015,07,14,13,50,22.70
2015,07,14,13,51,22.70
2015,07,14,13,52,22.70
2015,07,14,13,53,22.70
2015,07,14,13,54,22.70
2015,07,14,13,55,22.60
2015,07,14,13,56,22.60
2015,07,14,13,57,22.50
2015,07,14,13,58,22.40
2015,07,14,13,59,22.40
2015,07,14,14,00,22.50
2015,07,14,14,01,22.50
2015,07,14,14,02,22.40
2015,07,14,14,03,22.40
2015,07,14,14,04,22.50
2015,07,14,14,05,22.50
2015,07,14,14,06,22.60
2015,07,14,14,07,22.60
2015,07,14,14,08,22.50
2015,07,14,14,09,22.40
2015,07,14,14,10,22.30
2015,07,14,14,11,22.20
2015,07,14,14,12,22.20
2015,07,14,14,13,22.20
2015,07,14,14,14,22.20
2015,07,14,14,15,22.20
2015,07,14,14,16,22.20
2015,07,14,14,17,22.20
2015,07,14,14,18,22.30
2015,07,14,14,19,22.30
2015,07,14,14,20,22.30
2015,07,14,14,21,22.30
2015,07,14,14,22,22.30
2015,07,14,14,23,22.30
2015,07,14,14,24,22.40
2015,07,14,14,25,22.40
2015,07,14,14,26,22.40
2015,07,14,14,27,22.50
2015,07,14,14,28,22.50
2015,07,14,14,29,22.50
2015,07,14,14,30,22.40
2015,07,14,14,31,22.40
2015,07,14,14,32,22.40
2015,07,14,14,33,22.30
2015,07,14,14,34,22.20
2015,07,14,14,35,22.20
2015,07,14,14,36,22.20
2015,07,14,14,37,22.20
2015,07,14,14,38,22.20
2015,07,14,14,39,22.30
2015,07,14,14,40,22.40
2015,07,14,14,41,22.50
2015,07,14,14,42,22.70
2015,07,14,14,43,22.80
2015,07,14,14,44,22.80
2015,07,14,14,45,22.90
2015,07,14,14,46,23.00
2015,07,14,14,47,23.10
2015,07,14,14,48,23.30
2015,07,14,14,49,23.30
2015,07,14,14,50,23.40
2015,07,14,14,51,23.50
2015,07,14,14,52,23.60
2015,07,14,14,53,23.50
2015,07,14,14,54,23.60
2015,07,14,14,55,23.60
2015,07,14,14,56,23.70
2015,07,14,14,57,23.70
2015,07,14,14,58,23.80
2015,07,14,14,59,23.80
2015,07,14,15,00,23.80
2015,07,14,15,01,23.80
2015,07,14,15,02,23.80
2015,07,14,15,03,23.80
2015,07,14,15,04,23.70
2015,07,14,15,05,23.60
2015,07,14,15,06,23.50
2015,07,14,15,07,23.30
2015,07,14,15,08,23.10
2015,07,14,15,09,23.00
2015,07,14,15,10,22.80
2015,07,14,15,11,22.80
2015,07,14,15,12,22.80
2015,07,14,15,13,22.80
2015,07,14,15,14,22.90
2015,07,14,15,15,23.00
2015,07,14,15,16,23.10
2015,07,14,15,17,23.30
2015,07,14,15,18,23.40
2015,07,14,15,19,23.40
2015,07,14,15,20,23.40
2015,07,14,15,21,23.30
2015,07,14,15,22,23.30
2015,07,14,15,23,23.20
2015,07,14,15,24,23.10
2015,07,14,15,25,23.00
2015,07,14,15,26,23.00
2015,07,14,15,27,23.00
2015,07,14,15,28,23.10
2015,07,14,15,29,23.20
2015,07,14,15,30,23.20
2015,07,14,15,31,23.30
2015,07,14,15,32,23.30
2015,07,14,15,33,23.40
2015,07,14,15,34,23.40
2015,07,14,15,35,23.50
2015,07,14,15,36,23.50
2015,07,14,15,37,23.60
2015,07,14,15,38,23.60
2015,07,14,15,39,23.60
2015,07,14,15,40,23.70
2015,07,14,15,41,23.80
2015,07,14,15,42,23.80
2015,07,14,15,43,23.80
2015,07,14,15,44,23.80
2015,07,14,15,45,23.80
2015,07,14,15,46,23.90
2015,07,14,15,47,23.90
2015,07,14,15,48,24.00
2015,07,14,15,49,24.00
2015,07,14,15,50,24.00
2015,07,14,15,51,24.10
2015,07,14,15,52,24.10
2015,07,14,15,53,24.20
2015,07,14,15,54,24.10
2015,07,14,15,55,24.00
2015,07,14,15,56,23.90
2015,07,14,15,57,23.70
2015,07,14,15,58,23.50
2015,07,14,15,59,23.40
2015,07,14,16,00,23.30
2015,07,14,16,01,23.20
2015,07,14,16,02,23.10
2015,07,14,16,03,23.00
2015,07,14,16,04,23.00
2015,07,14,16,05,23.00
2015,07,14,16,06,23.00
2015,07,14,16,07,23.00
2015,07,14,16,08,22.90
2015,07,14,16,09,22.90
2015,07,14,16,10,22.80
2015,07,14,16,11,22.80
2015,07,14,16,12,22.70
2015,07,14,16,13,22.70
2015,07,14,16,14,22.70
2015,07,14,16,15,22.70
2015,07,14,16,16,22.70
2015,07,14,16,17,22.90
2015,07,14,16,18,23.00
2015,07,14,16,19,23.10
2015,07,14,16,20,23.20
2015,07,14,16,21,23.20
2015,07,14,16,22,23.30
2015,07,14,16,23,23.30
2015,07,14,16,24,23.40
2015,07,14,16,25,23.40
2015,07,14,16,26,23.40
2015,07,14,16,27,23.40
2015,07,14,16,28,23.40
2015,07,14,16,29,23.40
2015,07,14,16,30,23.40
2015,07,14,16,31,23.50
2015,07,14,16,32,23.50
2015,07,14,16,33,23.60
2015,07,14,16,34,23.60
2015,07,14,16,35,23.60
2015,07,14,16,36,23.70
2015,07,14,16,37,23.80
2015,07,14,16,38,23.80
2015,07,14,16,39,23.80
2015,07,14,16,40,23.90
2015,07,14,16,41,24.00
2015,07,14,16,42,24.10
2015,07,14,16,43,24.10
2015,07,14,16,44,24.10
2015,07,14,16,45,24.10
2015,07,14,16,46,24.20
2015,07,14,16,47,24.20
2015,07,14,16,48,24.20
2015,07,14,16,49,24.20
2015,07,14,16,50,24.20
2015,07,14,16,51,24.20
2015,07,14,16,52,24.20
2015,07,14,16,53,24.10
2015,07,14,16,54,24.10
2015,07,14,16,55,24.10
2015,07,14,16,56,24.00
2015,07,14,16,57,24.00
2015,07,14,16,58,24.00
2015,07,14,16,59,24.10
2015,07,14,17,00,24.10
2015,07,14,17,01,24.10
2015,07,14,17,02,24.10
2015,07,14,17,03,24.10
2015,07,14,17,04,24.00
2015,07,14,17,05,24.00
2015,07,14,17,06,24.00
2015,07,14,17,07,24.00
2015,07,14,17,08,24.00
2015,07,14,17,09,24.00
2015,07,14,17,10,24.00
2015,07,14,17,11,24.00
2015,07,14,17,12,23.90
2015,07,14,17,13,23.80
2015,07,14,17,14,23.70
2015,07,14,17,15,23.70
2015,07,14,17,16,23.60
2015,07,14,17,17,23.60
2015,07,14,17,18,23.50
2015,07,14,17,19,23.50